sat.trackr.live / text

‹ back to catalog

ONEWEB-0023

NORAD 45136 · 2020-008F

PAYLOAD ACTIVE UNKNOWN

§ Identity

Operator
Country
UK
Launch date
2020-02-06
Launch site
TYMSC
Launch vehicle
Mass (kg)
RCS (m²)

Purposes: comms

External: N2YO · Heavens-Above · Gunter

§ Orbital elements

Epoch: 2026-09-20T01:27:16.081056Z

Period
109.89 min
Inclination
87.8912°
Eccentricity
0.0001817
Mean motion
13.10377017 rev/d
Perigee alt
1,220.3 km
Apogee alt
1,223.1 km
Semi-major
7,599.8 km
B*
-1.0074e-5
RAAN
17.3808°
Arg perigee
107.1649°
Mean anomaly
252.9677°
Rev number
32,050

§ Raw data

ONEWEB-00231 45136U 20008F   26263.06060279  .00000009  00000+0 -10074-4 0  99932 45136  87.8912  17.3808 0001817 107.1649 252.9677 13.10377017320506

JSON: /api/v1/satellites/45136 · /tle

For live sub-satellite position, see the globe view (requires WebGL).

§ Visibility from observer

Set your observer location to see the next 7 days of passes ≥ 10°. The values pass through the URL so the page stays shareable.

No JS? Fill the form by hand. The geolocation button needs JavaScript.